Regional Weather Roundup
Issued by NWS

Home | Current Version | Previous Version | Text Only | Print | Product List | Glossary On
Versions: 1 2 3 4 5 6 7 8 9 10 11 12 13 14 15 16 17 18 19 20 21 22 23 24 25 26 27 28 29 30 31 32 33 34 35 36 37 38 39 40 41 42 43 44 45 46 47 48 49 50
000
ASUS44 KFWD 301715
RWRTX
NORTH TEXAS HOURLY WEATHER ROUNDUP
NATIONAL WEATHER SERVICE FORT WORTH TX
1200 PM CDT SAT AUG 30 2014

NOTE: "FAIR" INDICATES FEW OR NO CLOUDS BELOW 12,000 FEET WITH NO
SIGNIFICANT WEATHER AND/OR OBSTRUCTIONS TO VISIBILITY.

TXZ118-119-301800-
DALLAS/FORT WORTH METROPLEX

CITY           SKY/WX    TMP DP  RH WIND       PRES   REMARKS
DFW AIRPORT    MOSUNNY   85  72  65 SE8       29.97R HX  91
DALLAS LOVE    PTSUNNY   83  72  69 S5        29.97S
FTW MEACHAM    SUNNY     87  71  58 VRB3      29.96S HX  93
DAL-EXECUTIVE  MOSUNNY   86  70  58 VRB6      29.97F HX  90
FTW-ALLIANCE   MOSUNNY   87  71  58 E6        29.96S HX  93
FTW-NAS-JRB    MOSUNNY   91  67  44 VRB3      30.00S HX  94
FTW-SPINKS     MOSUNNY   86  72  62 CALM      29.98S HX  92
ARLINGTON      SUNNY     85  71  63 E6        29.97S HX  90
GRAND PRAIRIE  MOSUNNY   84  70  61 NE3       29.99S
MESQUITE       MOSUNNY   82  70  65 SW3       29.97F
LANCASTER      PTSUNNY   82  70  67 E3        29.99S
$$

TXZ091>094-102>105-117-120-121-131>134-301800-
NORTH CENTRAL TEXAS

CITY           SKY/WX    TMP DP  RH WIND       PRES   REMARKS
SHRMAN/DENISON MOSUNNY   85  71  62 S6        29.99S
GAINESVILLE    SUNNY     85  72  66 S3        29.99S HX  91
BOWIE          MOSUNNY   87  71  58 W3        29.98S HX  93
BRIDGEPORT     SUNNY     87  69  55 CALM      29.99S HX  90
DECATUR        SUNNY     85  70  61 CALM      29.98S
DENTON         MOSUNNY   86  71  60 CALM      29.96S HX  91
MCKINNEY       PTSUNNY   82  71  69 SW5       29.98S
GREENVILLE       N/A     82  70  65 CALM      29.99S
ROCKWALL       PTSUNNY   85  73  65 CALM      29.97S HX  92
TERRELL        MOSUNNY   84  71  65 CALM      29.98F
WAXAHACHIE     PTSUNNY   84  69  58 CALM      29.99F
CLEBURNE       SUNNY     86  73  66 CALM      29.99F HX  93
GRANBURY       SUNNY     89  71  55 E6        29.98S HX  94
$$

TXZ083>090-098>101-113>116-127>130-139>142-154-155-301800-
WESTERN NORTH TEXAS

CITY           SKY/WX    TMP DP  RH WIND       PRES   REMARKS
WICHITA FALLS  SUNNY     86  72  62 VRB5      29.96F HX  92
WF-KICKAPOO    SUNNY     87  69  55 W7        29.98S HX  92
VERNON         SUNNY     87  68  54 CALM      29.98F HX  90
ABILENE        SUNNY     89  69  51 N6        30.01F HX  93
ABILENE-DYESS  SUNNY     87  71  57 N6        29.99F HX  92
BRECKENRIDGE   SUNNY     89  69  51 NW5       29.97F HAZE    HX  94
GRAHAM         SUNNY     87  70  56 CALM      29.96F HX  92
MINERAL WELLS  SUNNY     89  71  55 CALM      29.96S HX  95
STEPHENVILLE   MOSUNNY   87  70  57 CALM      30.01F HX  91
COMANCHE         N/A     89  68  50 N6        29.99S HX  93
BROWNWOOD      PTSUNNY   88  70  55 W7        29.99S HX  92
COLEMAN        SUNNY     87  67  51 W5        30.00S HX  90
BRADY          MOSUNNY   88  70  55 N5        30.00F HX  92
$$

TXZ143>147-156>162-174-175-301800-
CENTRAL TEXAS

CITY           SKY/WX    TMP DP  RH WIND       PRES   REMARKS
WACO           MOSUNNY   84  71  65 E6        29.98S
WACO-TSTC      MOSUNNY   82  72  69 CALM      29.97S
WACO-MCGREGOR  SUNNY     84  72  65 NE6       29.98F
HILLSBORO      MOSUNNY   86  70  59 CALM      29.98S HX  90
CORSICANA      PTSUNNY   83  71  67 CALM      29.99S
MEXIA          CLOUDY    81  72  73 CALM      29.97F
HEARNE           N/A     80  72  75 CALM      29.98S
CAMERON        CLOUDY    84  72  66 E5        29.96F HX  90
TEMPLE         MOSUNNY   88  66  48 SE5       29.96F HX  90
KILLEEN        MOSUNNY   88  72  58 E3        29.97F HX  94
KILLEEN-SKYLRK SUNNY     86  68  54 CALM      29.97F
FORT HOOD      MOSUNNY   91  70  49 CALM      29.97F HX  96
GATESVILLE     SUNNY     84  72  65 CALM      29.99F
LAMPASAS       SUNNY     90  73  56 CALM      29.97S HX  98
$$

TXZ095>097-106>112-122>126-135>138-148>153-164>167-301800-
EAST TEXAS

CITY           SKY/WX    TMP DP  RH WIND       PRES   REMARKS
PARIS          PTSUNNY   82  66  57 E5        29.99F
SULPHUR SPRNGS MOSUNNY   84  68  59 N3        30.00F
MOUNT PLEASANT MOSUNNY   82  72  70 CALM      30.00F
GILMER         MOSUNNY   82  72  69 CALM      29.99F
MINEOLA        CLOUDY    84  72  65 CALM      29.99F
TYLER          CLOUDY    82  72  69 E6        29.98S
LONGVIEW       PTSUNNY   87  71  58 MISG      29.96F HX  93
MARSHALL       PTSUNNY   88  76  68 E5        29.99F HX  98
ATHENS         CLOUDY    81  68  65 CALM      29.97F
PALESTINE      MOSUNNY   83  72  69 CALM      29.98F
JACKSONVILLE   PTSUNNY   81  72  75 N5        30.01S
HENDERSON      PTSUNNY   83  70  64 CALM      29.98F
NACOGDOCHES    PTSUNNY   82  72  69 CALM      29.97F
LUFKIN         CLOUDY    82  73  74 CALM      29.97S
$$

SUPPLEMENTAL OBSERVATIONS (CENTRAL)

CITY           SKY/WX    TMP DP  RH WIND       PRES   REMARKS
LAKE TEXOMA      N/A     86  72  62 S1          N/A  HX  92
CADDO GRASSLND   N/A     86  70  58 S3          N/A  HX  90
PAT MAYSE LAKE   N/A     82  72  69 S3          N/A
GREENVILLE       N/A     88  72  58 E2          N/A  HX  94
CEDAR HILL       N/A     90  72  55 NE1         N/A  HX  96
PALESTINE        N/A     88  72  58 NE3         N/A  HX  94
MCGREGOR         N/A     88  70  55 E3          N/A  HX  92
TEMPLE           N/A     90  72  55 NE3         N/A  HX  96
$$

SUPPLEMENTAL OBSERVATIONS (WEST)

CITY           SKY/WX    TMP DP  RH WIND       PRES   REMARKS
MILLERS CREEK    N/A     86  79  79 W7          N/A  HX  99
POSSUM KINGDOM   N/A     90  70  51 NW5         N/A  HX  95
LBJ GRASSLAND    N/A     90  73  58 W3          N/A  HX  98
GRANBURY         N/A     90  72  55 E6          N/A  HX  96
HAMBY            N/A     90  66  45 NW7         N/A  HX  92
IVIE RESERVOIR   N/A     91  68  46 NW5         N/A  HX  95
COLORADO BEND    N/A     90  64  43 NE5         N/A  HX  91
$$

SUPPLEMENTAL OBSERVATIONS (EAST)

CITY           SKY/WX    TMP DP  RH WIND       PRES   REMARKS
CLARKSVILLE      N/A     84  70  61 SE6         N/A
TEXARKANA        N/A     88  72  58 E2          N/A  HX  94
LINDEN           N/A     88  72  58 E1          N/A  HX  94
GILMER           N/A     86  72  62 S1          N/A  HX  92
HENDERSON        N/A     86  72  62 S2          N/A  HX  92
LUFKIN           N/A     84  73  70 MISG        N/A  HX  91
N SABINE NF      N/A     81  75  83 MISG        N/A
S SABINE NF      N/A     81  75  83 SE2         N/A
$$

SUPPLEMENTAL OBSERVATIONS ARE A COLLECTION OF AUTOMATED INSTRUMENTS
THAT ARE MAINTAINED BY A VARIETY OF FEDERAL AND STATE AGENCIES.
CERTAIN ELEMENTS...SUCH AS HUMIDITY VALUES AND SUSTAINED WIND
SPEEDS...MAY BE APPROXIMATED.




USA.gov is the U.S. government's official web portal to all federal, state and local government web resources and services.